www.pogodaiklimat.ru

Погода и климат >> Архив погоды >> Кипр >> Акротири


ПОГОДА на Акротири

  • Прогноз погоды на Акротири
  • Монитор погоды на Акротири

АРХИВ ПОГОДЫ на Акротири

Время (UTC), дата Ветер
(напр.,м/с)
 
Видим.   Явления Облачность Т
(С)
Тd
(С)
f
(%)
Тe
(С)
Тes
(С)
Комфортность P
(гПа)
Po
(гПа)
Тmin
(С)
Tmax
(С)
R
(мм)
R24
(мм)
S
(см)
22 13.06 З 4 15 км ясно +22.8 +21.2 91 +30 +30 очень
душно
1008.8 1005.8
23 13.06 З 3 15 км ясно +22.6 +20.7 89 +29 +29 очень
душно
1008.4 1005.4
00 14.06 З 2 15 км ясно +22.3 +20.0 87 +28 +28 душно 1008.1 1005.0
01 14.06 З 2 15 км ясно +22.3 +19.8 86 +28 +28 душно 1007.8 1004.8
02 14.06 З 1 н/о н/о +21.9 +17.9 78 +27 +27 душно 1007.7 1004.6
03 14.06 З 2 12 км ясно +22.0 +18.9 83 +27 +27 душно 1007.9 1004.9
04 14.06 СЗ 1 15 км ясно +23.0 +19.5 81 +30 +31 очень
душно
1008.1 1005.1
05 14.06 В 1 18 км ясно +25.3 +19.4 70 +31 +37 очень
душно
1008.5 1005.5
06 14.06 Ю 3 16 км ясно +25.5 +19.1 68 +31 +38 очень
душно
1008.9 1005.9 +21.6
07 14.06 Ю 4 16 км 1/1 1050 м
[Cu hum]
+25.8 +18.8 65 +31 +40 очень
душно
1009.0 1006.0
08 14.06 ЮЗ 6 18 км 1/1 600 м
[Cu med, cong]
+26.3 +21.2 74 +33 +40 очень
душно
1009.1 1006.1
09 14.06 ЮЗ 6 18 км 1/1 420 м
[Cu med, cong Ac trans]
+26.3 +21.3 74 +33 +40 очень
душно
1009.0 1006.0
10 14.06 ЮЗ 6 18 км 1/1 480 м
[Cb calv]
+26.7 +21.1 71 +34 +41 очень
душно
1008.8 1005.8
11 14.06 ЮЗ 7 18 км 3/1 450 м
[Cb cap Ac trans]
+26.7 +21.6 74 +34 +38 очень
душно
1008.5 1005.6
12 14.06 З 5 18 км 6/3 900 м
[Cb calv Ac trans Ci ing]
+25.8 +20.9 74 +32 +37 очень
душно
1008.5 1005.5
13 14.06 З 6 18 км 6/1 900 м
[Cu med, cong Ac trans Ci ing]
+26.6 +21.5 74 +34 +37 очень
душно
1008.1 1005.1
14 14.06 ЮЗ 6 18 км 4/1 450 м
[Cu hum Ac trans Ci fib]
+26.9 +21.6 73 +34 +36 очень
душно
1007.8 1004.9
15 14.06 З 7 18 км 3/1 450 м
[Cu med, cong Ci fib]
+26.4 +21.2 73 +33 +34 очень
душно
1007.6 1004.6
16 14.06 З 6 18 км 1/1 750 м
[Cu med, cong Ac trans Ci sp]
+25.3 +21.3 79 +32 +32 очень
душно
1007.6 1004.7
17 14.06 З 7 20 км 1/1 750 м
[Cu med, cong Ac trans Ci sp]
+24.6 +21.3 82 +31 +31 очень
душно
1007.5 1004.5
18 14.06 З 6 20 км ясно +24.2 +21.1 83 +31 +31 очень
душно
1007.8 1004.8 +27.9
19 14.06 З 4 20 км ясно +24.0 +21.2 84 +30 +30 очень
душно
1008.1 1005.1
20 14.06 З 4 20 км ясно +23.8 +21.3 86 +30 +30 очень
душно
1008.0 1005.0
21 14.06 З 4 15 км ясно +23.5 +21.3 87 +30 +30 очень
душно
1007.5 1004.5
22 14.06 З 3 15 км ясно +23.2 +21.5 90 +31 +31 очень
душно
1007.3 1004.3
23 14.06 З 2 20 км ясно +22.9 +21.1 90 +30 +30 очень
душно
1006.9 1003.8
00 15.06 С 2 25 км ясно +22.5 +20.8 90 +29 +29 очень
душно
1006.4 1003.4
01 15.06 В 2 25 км ясно +22.3 +20.6 90 +29 +29 очень
душно
1006.3 1003.3
02 15.06 СВ 2 н/о н/о +22.0 +20.1 89 +28 +28 душно 1006.4 1003.4
03 15.06 СВ 3 16 км 8/1 120 м
[St Ci fib]
+21.8 +20.5 92 +28 +28 душно 1006.5 1003.5
04 15.06 СВ 2 20 км ясно +23.2 +20.2 83 +30 +32 очень
душно
1006.8 1003.8
05 15.06 СВ 3 20 км ясно +25.4 +20.6 75 +32 +35 очень
душно
1007.1 1004.1
06 15.06 В 3 20 км 1/1 600 м
[Cu hum]
+26.4 +20.8 71 +33 +40 очень
душно
1007.4 1004.5 +21.7
07 15.06 ЮВ 4 20 км 1/1 540 м
[Cu hum]
+26.3 +20.2 69 +32 +41 очень
душно
1007.6 1004.6
08 15.06 Ю 3 20 км 3/3 450 м
[Cu med, cong]
+26.1 +21.4 75 +33 +45 очень
душно
1007.9 1004.9
09 15.06 Ю 4 20 км 4/4 360 м
[Cu med, cong Ac trans]
+27.6 +22.4 73 +36 +44 очень
душно
1008.0 1005.0
10 15.06 ЮЗ 5 25 км 4/4 600 м
[Cb calv]
+26.6 +21.5 74 +34 +41 очень
душно
1007.8 1004.9
11 15.06 ЮЗ 5 25 км 4/4 600 м
[Cb cap]
+27.2 +21.0 69 +34 +41 очень
душно
1007.7 1004.7
12 15.06 З 4 25 км 4/4 600 м
[Cb cap]
+27.5 +20.5 66 +34 +41 очень
душно
1007.6 1004.6
13 15.06 ЮЗ 6 25 км 1/1 750 м
[Cu med, cong Ci fib]
+26.9 +21.4 72 +34 +38 очень
душно
1006.9 1004.0
14 15.06 ЮЗ 6 25 км 1/1 750 м
[Cb cap]
+27.0 +21.3 71 +34 +37 очень
душно
1006.8 1004.2
15 15.06 ЮЗ 5 30 км 1/1 750 м
[Cb cap]
+26.9 +20.9 70 +34 +36 очень
душно
1006.6 1003.6
16 15.06 З 5 30 км 1/1 900 м
[Cu hum]
+26.4 +20.8 71 +33 +33 очень
душно
1006.8 1003.8
17 15.06 ЮЗ 3 30 км 1/1 1350 м
[Cu hum]
+24.9 +21.2 80 +31 +31 очень
душно
1006.6 1003.6
18 15.06 ЮЗ 3 30 км ясно +24.3 +21.2 83 +31 +31 очень
душно
1006.6 1003.6 +28.4
19 15.06 З 2 25 км ясно +24.0 +21.4 85 +30 +30 очень
душно
1007.0 1004.0
20 15.06 З 2 25 км ясно +23.8 +21.5 87 +30 +30 очень
душно
1007.0 1004.0
21 15.06 З 2 25 км ясно +23.5 +21.8 90 +30 +30 очень
душно
1007.1 1004.1
22 15.06 З 2 25 км ясно +23.3 +21.7 91 +32 +32 очень
душно
1006.8 1003.7
23 15.06 З 1 20 км 3/3 240 м
[St]
+23.2 +21.8 92 +31 +31 очень
душно
1006.7 1003.7
00 16.06 С 1 20 км 3/3 360 м
[St]
+22.5 +21.2 92 +30 +30 очень
душно
1006.6 1003.6
01 16.06 В 2 20 км 3/3 300 м
[St]
+21.8 +20.7 93 +28 +28 душно 1006.2 1003.2
02 16.06 0 20 км 1/1 300 м
[St]
+21.8 +19.5 87 1006.2 1003.2
03 16.06 С 1 15 км 5/5 120 м
[St]
+21.5 +19.6 89 +27 +27 душно 1006.6 1003.6
04 16.06 СВ 1 12 км 1/1 360 м
[St]
+22.6 +21.1 91 +30 +31 очень
душно
1006.9 1003.9
05 16.06 С 1 16 км 1/1 270 м
[Cu hum]
+24.4 +21.3 83 +31 +36 очень
душно
1007.2 1004.2
06 16.06 Ю 3 18 км 1/1 540 м
[Cu hum]
+25.8 +20.0 70 +32 +39 очень
душно
1007.4 1004.5 +21.5
07 16.06 Ю 3 18 км 1/1 600 м
[Cu med, cong]
+26.5 +21.0 72 +33 +44 очень
душно
1007.7 1004.7
08 16.06 Ю 4 18 км 1/1 660 м
[Cu med, cong]
+26.8 +20.7 69 +33 +45 очень
душно
1008.0 1005.0
09 16.06 Ю 3 18 км 1/1 600 м
[Cb calv]
+27.5 +20.2 64 +34 +49 очень
душно
1008.0 1005.0
10 16.06 Ю 4 18 км 1/1 660 м
[Cb cap]
+27.3 +20.6 67 +34 +48 очень
душно
1008.1 1005.2
11 16.06 Ю 4 20 км 1/1 800 м
[Cb cap Ac trans]
+27.3 +20.8 68 +34 +46 очень
душно
1007.9 1005.0
12 16.06 Ю 3 18 км 1/1 900 м
[Cb cap]
+27.6 +20.2 64 +34 +46 очень
душно
1007.6 1004.6
13 16.06 Ю 3 18 км 3/3 540 м
[Cb cap]
+27.9 +21.1 67 +35 +43 очень
душно
1007.3 1004.3
14 16.06 Ю 3 18 км 3/3 540 м
[Cb calv]
+26.9 +20.7 69 +34 +38 очень
душно
1006.9 1003.9
15 16.06 ЮЗ 3 16 км 3/3 540 м
[Cb cap]
+26.6 +20.7 70 +33 +35 очень
душно
1006.9 1003.9
16 16.06 ЮЗ 3 15 км 1/1 600 м
[Cu med, cong Ac trans Ci ing]
+26.0 +21.3 75 +33 +33 очень
душно
1006.7 1003.7
17 16.06 З 3 15 км 1/1 420 м
[St]
+25.5 +21.3 78 +32 +32 очень
душно
1006.9 1003.9
18 16.06 ЮЗ 2 15 км 1/1 420 м
[St]
+24.8 +21.1 80 +31 +31 очень
душно
1007.3 1004.3 +28.1
19 16.06 ЮЗ 2 15 км 1/1 420 м
[St]
+24.6 +21.2 81 +31 +31 очень
душно
1007.7 1004.7
20 16.06 ЮЗ 2 15 км 1/1 420 м
[St]
+24.4 +21.2 82 +31 +31 очень
душно
1007.5 1004.5
21 16.06 ЮЗ 2 15 км 1/1 420 м
[St]
+23.9 +20.9 83 +30 +30 очень
душно
1007.3 1004.3
22 16.06 ЮЗ 2 15 км 4/4 420 м
[Sc]
+23.7 +20.7 83 +30 +30 очень
душно
1007.4 1004.4
23 16.06 ЮЗ 2 15 км 4/4 420 м
[St]
+23.7 +21.3 86 +30 +30 очень
душно
1007.5 1004.5
00 17.06 ЮЗ 1 15 км 1/1 420 м
[St]
+23.4 +21.0 86 +31 +31 очень
душно
1007.0 1004.0
01 17.06 ЮЗ 1 15 км 4/4 400 м
[Sc]
+23.3 +21.1 87 +31 +31 очень
душно
1007.2 1004.1
02 17.06 ЮВ 1 12 км 1/1 540 м
[Sc]
+22.8 +20.8 88 +30 +30 очень
душно
1007.0 1004.0
03 17.06 С 1 10 км 1/1 450 м
[St]
+22.1 +19.4 85 +28 +28 душно 1007.3 1004.3
04 17.06 С 1 10 км 1/1 360 м
[Cu hum]
+23.6 +19.6 78 +29 +31 душно 1007.7 1004.7
05 17.06 СВ 1 10 км 1/1 480 м
[Cu hum]
+25.6 +21.1 76 +32 +37 очень
душно
1007.9 1004.9
06 17.06 Ю 1 10 км 1/1 480 м
[Cu hum]
+26.8 +21.1 71 +34 +44 очень
душно
1008.2 1005.3 +22.1
07 17.06 ЮЗ 3 20 км 1/1 540 м
[Cu med, cong]
+26.6 +20.3 68 +33 +43 очень
душно
1008.6 1005.6
08 17.06 Ю 5 20 км 1/1 900 м
[Cu med, cong]
+27.0 +19.6 64 +33 +41 очень
душно
1008.9 1006.0
09 17.06 ЮЗ 7 18 км 1/1 900 м
[Cb cap]
+26.8 +21.0 71 +34 +40 очень
душно
1009.0 1006.0
10 17.06 ЮЗ 6 18 км 3/3 500 м
[Cb cap]
+27.3 +20.9 68 +34 +41 очень
душно
1009.0 1006.0
11 17.06 З 6 18 км 4/4 500 м
[Cb cap Ac trans]
+26.9 +21.0 70 +34 +39 очень
душно
1009.3 1006.3
12 17.06 З 6 15 км 5/5 500 м
[Cb cap Ac trans]
+28.2 +21.1 65 +35 +39 очень
душно
1009.6 1006.6
13 17.06 З 6 15 км 3/3 570 м
[Cu med, cong]
+28.5 +21.3 65 +36 +40 очень
душно
1008.7 1005.7
14 17.06 З 7 15 км 1/1 600 м
[Cu med, cong]
+27.9 +20.9 66 +35 +37 очень
душно
1008.5 1005.5
15 17.06 З 7 15 км 1/1 600 м
[Cb cap]
+27.2 +21.6 71 +35 +36 очень
душно
1008.5 1005.5
16 17.06 З 8 20 км 1/1 900 м
[Cu hum Ci sp]
+26.8 +21.3 72 +34 +34 очень
душно
1008.5 1005.5
17 17.06 З 6 15 км 1/1 900 м
[Cu hum]
+25.1 +21.5 80 +32 +32 очень
душно
1008.9 1005.9
18 17.06 З 4 15 км 1/1 480 м
[Sc diur, vesp]
+24.6 +21.7 84 +31 +31 очень
душно
1009.4 1006.4 +28.6
19 17.06 З 5 20 км 1/1 900 м
[Sc]
+24.4 +21.5 84 +31 +31 очень
душно
1009.7 1006.6
20 17.06 З 3 25 км 1/1 900 м
[Sc diur, vesp]
+24.1 +21.7 86 +31 +31 очень
душно
1009.9 1006.9
21 17.06 З 3 25 км 3/3 480 м
[Sc diur, vesp]
+23.9 +21.8 88 +31 +31 очень
душно
1009.8 1006.8
22 17.06 З 3 25 км 3/3 500 м
[Sc]
+23.9 +21.9 89 +31 +31 очень
душно
1009.8 1006.7
23 17.06 З 3 25 км 3/3 450 м
[Sc]
+23.6 +21.7 89 +30 +30 очень
душно
1009.4 1006.4
00 18.06 З 2 25 км 1/1 450 м
[Sc]
+23.4 +21.0 86 +31 +31 очень
душно
1009.4 1006.4
01 18.06 ЮЗ 2 20 км 3/3 450 м
[Sc]
+23.5 +21.2 87 +30 +30 очень
душно
1009.1 1006.0
02 18.06 З 2 20 км 3/3 420 м
[Cu med, cong]
+23.3 +21.2 88 +31 +31 очень
душно
1009.0 1006.0
03 18.06 С 1 15 км 4/4 420 м
[Sc diur, vesp]
+22.2 +19.7 86 +28 +28 душно 1009.2 1006.2
04 18.06 З 1 15 км 3/3 420 м
[Cu med, cong]
+23.7 +20.3 81 +29 +31 душно 1009.4 1006.4
05 18.06 ЮЗ 3 20 км 6/6 360 м
[Sc]
+25.1 +21.5 80 +32 +34 очень
душно
1009.9 1006.9
06 18.06 З 4 20 км 4/4 450 м
[Cu hum]
+25.9 +21.5 77 +33 +37 очень
душно
1010.2 1007.2 +22.2
07 18.06 З 4 20 км 3/3 500 м
[Cu hum]
+26.7 +21.1 71 +34 +40 очень
душно
1010.4 1007.4
08 18.06 З 5 20 км 1/1 500 м
[Cu hum]
+25.9 +20.9 74 +32 +41 очень
душно
1010.6 1007.6
09 18.06 З 7 20 км 1/1 540 м
[Cu hum]
+26.4 +20.8 71 +33 +39 очень
душно
1010.6 1007.6
10 18.06 ЮЗ 9 20 км 1/1 570 м
[Cu hum]
+26.9 +20.5 68 +33 +36 очень
душно
1010.5 1007.5
11 18.06 ЮЗ 9
{13}
25 км 1/1 600 м
[Cu med, cong]
+27.9 +20.7 65 +35 +37 очень
душно
1010.5 1007.5
12 18.06 З 8
{13}
25 км 1/1 600 м
[Cb cap]
+27.8 +20.8 66 +35 +38 очень
душно
1010.1 1007.2
13 18.06 З 8
{13}
25 км 1/1 750 м
[Cb cap]
+26.6 +20.1 68 +33 +35 очень
душно
1010.2 1007.2
14 18.06 З 8 25 км 1/1 750 м
[Cb cap]
+27.4 +21.2 69 +35 +36 очень
душно
1010.2 1007.2
15 18.06 З 7 н/о н/о +26.4 +20.9 72 +33 +33 очень
душно
1010.2 1007.2
16 18.06 З 7 н/о н/о +26.0 +21.4 76 +33 +33 очень
душно
1010.0 1007.0
17 18.06 З 6 20 км 1/1 600 м
[Cu med, cong]
+25.1 +21.4 80 +32 +32 очень
душно
1010.2 1007.2
18 18.06 З 5 20 км 1/1 600 м
[Cu med, cong]
+24.6 +21.5 83 +31 +31 очень
душно
1010.2 1007.2 +28.8
19 18.06 З 5 20 км 3/3 720 м
[Cu Sc]
+24.7 +21.4 82 +31 +31 очень
душно
1010.2 1007.2
20 18.06 З 3 20 км 3/3 570 м
[Cu med, cong]
+24.3 +21.7 85 +31 +31 очень
душно
1010.4 1007.4
21 18.06 З 3 20 км 3/3 450 м
[Cu hum]
+24.2 +22.0 88 +31 +31 очень
душно
1010.5 1007.5
22 18.06 З 3 20 км 1/1 450 м
[Cu hum]
+23.9 +21.8 88 +31 +31 очень
душно
1010.0 1007.0
23 18.06 З 3 н/о н/о +23.4 +21.3 88 +31 +31 очень
душно
1009.8 1006.8
00 19.06 З 3 20 км ясно +23.1 +20.5 85 +30 +30 очень
душно
1009.2 1006.2
01 19.06 З 3 20 км ясно +23.1 +20.7 86 +30 +30 очень
душно
1008.7 1005.6
02 19.06 З 3 20 км ясно +22.8 +20.0 84 +29 +29 очень
душно
1008.7 1005.6
03 19.06 З 3 20 км ясно +22.9 +20.1 84 +30 +30 очень
душно
1008.8 1005.8
04 19.06 З 4 25 км ясно +23.8 +20.7 83 +30 +31 очень
душно
1009.2 1006.2
05 19.06 З 3 18 км ясно +24.9 +20.7 78 +31 +35 очень
душно
1009.5 1006.5
06 19.06 ЮЗ 4 18 км 1/1 500 м
[Cu hum]
+25.4 +21.0 77 +32 +37 очень
душно
1009.6 1006.6 +22.6
07 19.06 ЮЗ 6 18 км 1/1 600 м
[Cu hum]
+26.6 +21.6 74 +34 +39 очень
душно
1009.7 1006.7
08 19.06 ЮЗ 7 18 км 1/1 540 м
[Cu hum]
+26.5 +21.1 72 +33 +38 очень
душно
1009.8 1006.9
09 19.06 ЮЗ 7 18 км 1/1 540 м
[Cu hum]
+28.3 +21.1 65 +36 +40 очень
душно
1009.7 1006.7
10 19.06 ЮЗ 8 20 км 1/1 500 м
[Cu med, cong]
+28.1 +21.6 68 +36 +40 очень
душно
1009.6 1006.6
11 19.06 ЮЗ 9 20 км 1/1 540 м
[Cu med, cong]
+27.9 +21.2 67 +35 +37 очень
душно
1009.3 1006.4
12 19.06 З 8 20 км 1/1 570 м
[Cu med, cong]
+28.5 +21.1 64 +36 +39 очень
душно
1009.2 1006.2
13 19.06 З 8 22 км 1/1 600 м
[Cb cap]
+28.4 +20.7 63 +35 +37 очень
душно
1009.0 1006.0
14 19.06 З 8 22 км 1/1 750 м
[Cu med, cong]
+27.7 +20.3 64 +34 +35 очень
душно
1008.7 1005.7
15 19.06 З 7 22 км 1/1 750 м
[Cu med, cong]
+26.3 +20.8 72 +33 +34 очень
душно
1008.2 1005.2
16 19.06 З 7 20 км 1/1 750 м
[Cu med, cong]
+25.7 +20.4 73 +32 +32 очень
душно
1008.1 1005.1
17 19.06 З 6 20 км 1/1 1200 м
[Cu hum]
+24.9 +20.2 75 +31 +31 очень
душно
1008.1 1005.1
18 19.06 З 4 20 км 1/1 1200 м
[Cu hum]
+24.2 +20.9 82 +30 +30 очень
душно
1008.4 1005.4 +28.7
19 19.06 З 5 25 км ясно +24.0 +21.0 83 +30 +30 очень
душно
1008.4 1005.4
20 19.06 З 4 25 км ясно +24.0 +21.0 83 +30 +30 очень
душно
1008.4 1005.4
21 19.06 З 4 25 км ясно +23.7 +21.4 87 +30 +30 очень
душно
1008.5 1005.5
22 19.06 З 4 25 км ясно +23.6 +21.7 89 +30 +30 очень
душно
1008.6 1005.6
23 19.06 З 3 25 км ясно +22.9 +21.2 90 +30 +30 очень
душно
1008.4 1005.4
00 20.06 З 3 20 км 4/4 450 м
[St]
+23.2 +20.8 86 +31 +31 очень
душно
1007.9 1004.9
01 20.06 З 2 20 км 1/1 420 м
[St]
+23.1 +21.2 89 +31 +31 очень
душно
1007.8 1004.8
02 20.06 З 3 20 км ясно +23.0 +21.3 90 +31 +31 очень
душно
1007.6 1004.6
03 20.06 З 3 12 км 1/1 600 м
[Cu hum]
+22.8 +21.1 90 +30 +30 очень
душно
1007.7 1004.7
04 20.06 З 3 12 км 1/1 800 м
[Cu hum Ac trans]
+23.6 +21.2 86 +30 +31 очень
душно
1008.0 1005.0
05 20.06 З 4 18 км 1/1 480 м
[Cu hum]
+24.7 +20.7 78 +31 +34 очень
душно
1008.1 1005.1
06 20.06 З 5 20 км 1/1 540 м
[Cu hum]
+25.8 +20.5 73 +32 +36 очень
душно
1008.0 1005.0 +22.7
07 20.06 ЮЗ 6 22 км 1/1 750 м
[Cu hum]
+26.3 +19.8 67 +32 +37 очень
душно
1008.1 1005.1
08 20.06 ЮЗ 6 20 км 1/1 750 м
[Cu hum]
+26.3 +21.2 74 +33 +39 очень
душно
1008.2 1005.3
09 20.06 ЮЗ 6 18 км 1/1 750 м
[Cu med, cong]
+26.7 +21.5 73 +34 +41 очень
душно
1008.2 1005.2
10 20.06 ЮЗ 9
{13}
18 км 1/1 600 м
[Cu med, cong]
+28.0 +21.2 67 +35 +37 очень
душно
1007.9 1005.0
11 20.06 З 9
{13}
20 км 1/1 600 м
[Cu med, cong]
+28.1 +21.6 68 +36 +37 очень
душно
1007.6 1004.6
12 20.06 ЮЗ 9
{13}
18 км 1/1 600 м
[Cb cap]
+27.7 +21.5 69 +35 +37 очень
душно
1007.5 1004.6
13 20.06 З 10
{14}
15 км 1/1 600 м
[Cb calv]
+27.5 +21.9 72 +36 +36 очень
душно
1007.1 1004.2
14 20.06 З 8
{14}
15 км 1/1 600 м
[Cb cap]
+27.1 +22.0 74 +35 +36 очень
душно
1007.0 1004.0
15 20.06 З 9
{13}
18 км 1/1 750 м
[Cu med, cong]
+26.3 +21.8 76 +34 +34 очень
душно
1007.0 1004.1
16 20.06 З 8 18 км 1/1 750 м
[Sc diur, vesp]
+26.4 +21.9 76 +34 +34 очень
душно
1007.2 1004.3
17 20.06 З 6 20 км 1/1 900 м
[Cu hum]
+24.9 +21.8 83 +32 +32 очень
душно
1007.4 1004.4
18 20.06 З 6 20 км 1/1 1200 м
[Sc]
+24.5 +21.6 84 +31 +31 очень
душно
1007.6 1004.7 +28.6
19 20.06 З 7 20 км 1/1 1200 м
[Sc]
+24.3 +21.6 85 +31 +31 очень
душно
1007.8 1004.8
20 20.06 З 6 20 км 1/1 1200 м
[Sc]
+24.1 +21.3 84 +30 +30 очень
душно
1008.2 1005.2
21 20.06 З 6 20 км 1/1 1200 м
[Sc]
+23.8 +21.1 85 +30 +30 очень
душно
1008.2 1005.2

 

Местоположение метеостанции Акротири (Кипр): широта 34.58 долгота 32.98 высота над уровнем моря 23 м.

В архиве по умолчанию представлена погода на Акротири за последнюю неделю. Архивные данные за месяц целиком и за предыдущие месяцы, начиная с января 2011 года, Вы можете получить, выбрав интересующий диапазон дат из раскрывающегося списка и нажав кнопку "Ввод!".


*Определитесь, кто Вы:
робот инопланетянин человек

Внимание! Время в таблицах - всемирное. Для получения местного времени необходимо прибавить поправку, которая равна 2 ч.

Смотрите также архив погоды в соседних городах и на ближайших метеорологических станциях:

Погода в Пафосе (Кипр) (48 км)
Погода в Ларнаке (Кипр) (68 км)
Погода в Аталассе (Кипр) (74 км)
Погода в Никосии (Кипр) (79 км)
Погода в Акденизе (Кипр) (80 км)
Погода в Киринии (Кипр) (91 км)
Погода на Базе ВВС Gecitkale (Кипр) (100 км)
Погода в Лефконико (Кипр) (101 км)
Погода в Unknown (Кипр) (104 км)
Погода в Фамагусте (Кипр) (108 км)

Пояснения к столбцам:

Ветер - указаны скорость ветра в м/с - средняя за 10 мин, порывы в срок и между сроками (в фигурных скобках) и направление, откуда дует ветер: С - северный, СВ - северо-восточный, В - восточный, ЮВ - юго-восточный, Ю - южный, ЮЗ - юго-западный, З - западный, СЗ - северо-западный.
Видимость - горизонтальная дальность видимости в метрах или километрах. При видимости от 1 до 10 км при отсутствии осадков обычно наблюдается дымка, при ухудшении видимости до 1 км и менее - туман. В сухую погоду видимость может ухудшаться дымом, пылью или мглою.
Явления - указаны атмосферные явления, наблюдавшиеся в срок или в последний час перед сроком; фигурными скобками обозначены явления, наблюдавшиеся между сроками (за 1-3 часа до срока); квадратными скобками обозначены град или гололедные отложения с указанием их диаметра в мм.
Облачность - указаны через наклонную черту общая и нижняя облачность в баллах и высота нижней границы облаков в метрах; квадратными скобками обозначены формы облаков: Ci - перистые, Cs - перисто-слоистые, Cc - перисто-кучевые, Ac - высококучевые, As - высокослоистые, Sc - слоисто-кучевые, Ns - слоисто-дождевые, Cu - кучевые, Cb - кучево-дождевые. Подробнее классификацию облаков см. в Атласе облаков (PDF).
T - Температура воздуха - температура, измеренная на высоте 2 м над землей.
Td - Температура точки росы - температура, при понижении до которой содержащийся в воздухе водяной пар достигнет насыщения.
f - Относительная влажность воздуха - влажноcть воздуха, измеренная на высоте 2 м над землей.
Te - Эффективная температура - температура, которую ощущает одетый по сезону человек в тени. Характеристика душности погоды. При расчете учитывается влияние влажности воздуха и скорости ветра на теплоощущения человека.
Tes - Эффективная температура на солнце - температура, которую ощущает человек, с поправкой на солнечный нагрев. Характеристика знойности погоды. Зависит от высоты солнца над горизонтом, облачности и скорости ветра. Ночью, в пасмурную погоду, а также при ветре 12 м/с и более поправка равна нулю.
P - Атмосферное давление - приведенное к уровню моря атмосферное давление.
Po - Атмосферное давление - измеренное на уровне метеостанции атмосферное давление.
Tmin - Минимальная температура - минимум температуры воздуха на высоте 2 м над землей.
Tmax - Максимальная температура - максимум температуры воздуха на высоте 2 м над землей.
R - Количество осадков - Количество выпавших осадков за период времени, мм. При наведении курсора мыши на число - период времени, за который выпало указанное количество осадков.
R24 - Количество осадков - Количество выпавших осадков за 24 часа, мм.
S - Снежный покров - Высота снежного покрова, см. При наведении курсора мыши на число - состояние снежного покрова и степень покрытия местности в баллах.